#datetime,building,power
2023-09-08T00:00:00,sdl,4.90
2023-09-08T00:01:00,sdl,4.66
2023-09-08T00:02:00,sdl,4.91
2023-09-08T00:03:00,sdl,4.87
2023-09-08T00:04:00,sdl,4.68
2023-09-08T00:05:00,sdl,4.77
2023-09-08T00:06:00,sdl,4.75
2023-09-08T00:07:00,sdl,4.76
2023-09-08T00:08:00,sdl,4.83
2023-09-08T00:09:00,sdl,4.97
2023-09-08T00:10:00,sdl,4.79
2023-09-08T00:11:00,sdl,4.88
2023-09-08T00:12:00,sdl,4.75
2023-09-08T00:13:00,sdl,4.84
2023-09-08T00:14:00,sdl,4.79
2023-09-08T00:15:00,sdl,4.81
2023-09-08T00:16:00,sdl,4.76
2023-09-08T00:17:00,sdl,4.61
2023-09-08T00:18:00,sdl,4.62
2023-09-08T00:19:00,sdl,4.65
2023-09-08T00:20:00,sdl,6.76
2023-09-08T00:21:00,sdl,6.83
2023-09-08T00:22:00,sdl,6.83
2023-09-08T00:23:00,sdl,6.73
2023-09-08T00:24:00,sdl,7.29
2023-09-08T00:25:00,sdl,7.26
2023-09-08T00:26:00,sdl,6.97
2023-09-08T00:27:00,sdl,7.29
2023-09-08T00:28:00,sdl,7.15
2023-09-08T00:29:00,sdl,7.37
2023-09-08T00:30:00,sdl,7.34
2023-09-08T00:31:00,sdl,7.48
2023-09-08T00:32:00,sdl,7.45
2023-09-08T00:33:00,sdl,7.49
2023-09-08T00:34:00,sdl,5.34
2023-09-08T00:35:00,sdl,5.17
2023-09-08T00:36:00,sdl,5.19
2023-09-08T00:37:00,sdl,5.19
2023-09-08T00:38:00,sdl,5.86
2023-09-08T00:39:00,sdl,5.27
2023-09-08T00:40:00,sdl,5.35
2023-09-08T00:41:00,sdl,5.32
2023-09-08T00:42:00,sdl,5.19
2023-09-08T00:43:00,sdl,5.19
2023-09-08T00:44:00,sdl,5.19
2023-09-08T00:45:00,sdl,5.50
2023-09-08T00:46:00,sdl,5.36
2023-09-08T00:47:00,sdl,5.36
2023-09-08T00:48:00,sdl,5.30
2023-09-08T00:49:00,sdl,5.50
2023-09-08T00:50:00,sdl,7.70
2023-09-08T00:51:00,sdl,7.48
2023-09-08T00:52:00,sdl,7.45
2023-09-08T00:53:00,sdl,7.50
2023-09-08T00:54:00,sdl,7.70
2023-09-08T00:55:00,sdl,8.14
2023-09-08T00:56:00,sdl,7.51
2023-09-08T00:57:00,sdl,7.57
2023-09-08T00:58:00,sdl,8.04
2023-09-08T00:59:00,sdl,7.89
2023-09-08T01:00:00,sdl,8.01
2023-09-08T01:01:00,sdl,7.55
2023-09-08T01:02:00,sdl,8.25
2023-09-08T01:03:00,sdl,7.53
2023-09-08T01:04:00,sdl,5.29
2023-09-08T01:05:00,sdl,5.32
2023-09-08T01:06:00,sdl,5.34
2023-09-08T01:07:00,sdl,5.27
2023-09-08T01:08:00,sdl,5.26
2023-09-08T01:09:00,sdl,5.82
2023-09-08T01:10:00,sdl,5.42
2023-09-08T01:11:00,sdl,5.33
2023-09-08T01:12:00,sdl,5.18
2023-09-08T01:13:00,sdl,5.80
2023-09-08T01:14:00,sdl,4.83
2023-09-08T01:15:00,sdl,4.85
2023-09-08T01:16:00,sdl,4.87
2023-09-08T01:17:00,sdl,4.84
2023-09-08T01:18:00,sdl,4.42
2023-09-08T01:19:00,sdl,4.46
2023-09-08T01:20:00,sdl,4.74
2023-09-08T01:21:00,sdl,4.57
2023-09-08T01:22:00,sdl,4.40
2023-09-08T01:23:00,sdl,3.27
2023-09-08T01:24:00,sdl,3.20
2023-09-08T01:25:00,sdl,3.21
2023-09-08T01:26:00,sdl,3.23
2023-09-08T01:27:00,sdl,3.13
2023-09-08T01:28:00,sdl,7.12
2023-09-08T01:29:00,sdl,6.48
2023-09-08T01:30:00,sdl,6.52
2023-09-08T01:31:00,sdl,7.03
2023-09-08T01:32:00,sdl,7.04
2023-09-08T01:33:00,sdl,6.97
2023-09-08T01:34:00,sdl,6.77
2023-09-08T01:35:00,sdl,6.66
2023-09-08T01:36:00,sdl,6.66
2023-09-08T01:37:00,sdl,6.69
2023-09-08T01:38:00,sdl,6.75
2023-09-08T01:39:00,sdl,7.41
2023-09-08T01:40:00,sdl,6.58
2023-09-08T01:41:00,sdl,6.55
2023-09-08T01:42:00,sdl,6.58
2023-09-08T01:43:00,sdl,6.63
2023-09-08T01:44:00,sdl,6.60
2023-09-08T01:45:00,sdl,6.85
2023-09-08T01:46:00,sdl,6.75
2023-09-08T01:47:00,sdl,4.48
2023-09-08T01:48:00,sdl,4.71
2023-09-08T01:49:00,sdl,4.58
2023-09-08T01:50:00,sdl,5.33
2023-09-08T01:51:00,sdl,4.61
2023-09-08T01:52:00,sdl,4.97
2023-09-08T01:53:00,sdl,4.58
2023-09-08T01:54:00,sdl,4.51
2023-09-08T01:55:00,sdl,4.49
2023-09-08T01:56:00,sdl,5.27
2023-09-08T01:57:00,sdl,5.18
2023-09-08T01:58:00,sdl,5.05
2023-09-08T01:59:00,sdl,4.54
2023-09-08T02:00:00,sdl,4.44
2023-09-08T02:01:00,sdl,6.37
2023-09-08T02:02:00,sdl,6.42
2023-09-08T02:03:00,sdl,6.61
2023-09-08T02:04:00,sdl,6.65
2023-09-08T02:05:00,sdl,6.65
2023-09-08T02:06:00,sdl,11.61
2023-09-08T02:07:00,sdl,11.74
2023-09-08T02:08:00,sdl,11.76
2023-09-08T02:09:00,sdl,12.20
2023-09-08T02:10:00,sdl,11.78
2023-09-08T02:11:00,sdl,12.32
2023-09-08T02:12:00,sdl,14.71
2023-09-08T02:13:00,sdl,14.63
2023-09-08T02:14:00,sdl,14.66
2023-09-08T02:15:00,sdl,13.54
2023-09-08T02:16:00,sdl,13.55
2023-09-08T02:17:00,sdl,13.77
2023-09-08T02:18:00,sdl,13.66
2023-09-08T02:19:00,sdl,13.63
2023-09-08T02:20:00,sdl,14.75
2023-09-08T02:21:00,sdl,15.09
2023-09-08T02:22:00,sdl,15.58
2023-09-08T02:23:00,sdl,12.97
2023-09-08T02:24:00,sdl,12.77
2023-09-08T02:25:00,sdl,12.80
2023-09-08T02:26:00,sdl,13.13
2023-09-08T02:27:00,sdl,13.30
2023-09-08T02:28:00,sdl,13.32
2023-09-08T02:29:00,sdl,12.75
2023-09-08T02:30:00,sdl,12.80
2023-09-08T02:31:00,sdl,12.81
2023-09-08T02:32:00,sdl,12.90
2023-09-08T02:33:00,sdl,13.23
2023-09-08T02:34:00,sdl,13.20
2023-09-08T02:35:00,sdl,12.95
2023-09-08T02:36:00,sdl,13.00
2023-09-08T02:37:00,sdl,12.96
2023-09-08T02:38:00,sdl,15.15
2023-09-08T02:39:00,sdl,15.03
2023-09-08T02:40:00,sdl,14.87
2023-09-08T02:41:00,sdl,14.85
2023-09-08T02:42:00,sdl,14.86
2023-09-08T02:43:00,sdl,14.81
2023-09-08T02:44:00,sdl,14.71
2023-09-08T02:45:00,sdl,15.20
2023-09-08T02:46:00,sdl,15.42
2023-09-08T02:47:00,sdl,15.09
2023-09-08T02:48:00,sdl,15.11
2023-09-08T02:49:00,sdl,14.91
2023-09-08T02:50:00,sdl,14.88
2023-09-08T02:51:00,sdl,14.93
2023-09-08T02:52:00,sdl,15.07
2023-09-08T02:53:00,sdl,15.12
2023-09-08T02:54:00,sdl,14.96
2023-09-08T02:55:00,sdl,14.89
2023-09-08T02:56:00,sdl,14.07
2023-09-08T02:57:00,sdl,14.24
2023-09-08T02:58:00,sdl,11.71
2023-09-08T02:59:00,sdl,12.24
2023-09-08T03:00:00,sdl,12.21
2023-09-08T03:01:00,sdl,11.19
2023-09-08T03:02:00,sdl,12.95
2023-09-08T03:03:00,sdl,12.52
2023-09-08T03:04:00,sdl,12.58
2023-09-08T03:05:00,sdl,12.66
2023-09-08T03:06:00,sdl,12.62
2023-09-08T03:07:00,sdl,12.61
2023-09-08T03:08:00,sdl,12.77
2023-09-08T03:09:00,sdl,12.49
2023-09-08T03:10:00,sdl,12.70
2023-09-08T03:11:00,sdl,12.34
2023-09-08T03:12:00,sdl,12.46
2023-09-08T03:13:00,sdl,12.40
2023-09-08T03:14:00,sdl,12.42
2023-09-08T03:15:00,sdl,12.66
2023-09-08T03:16:00,sdl,12.47
2023-09-08T03:17:00,sdl,12.50
2023-09-08T03:18:00,sdl,12.26
2023-09-08T03:19:00,sdl,12.30
2023-09-08T03:20:00,sdl,12.33
2023-09-08T03:21:00,sdl,12.51
2023-09-08T03:22:00,sdl,12.31
2023-09-08T03:23:00,sdl,12.44
2023-09-08T03:24:00,sdl,12.35
2023-09-08T03:25:00,sdl,12.66
2023-09-08T03:26:00,sdl,11.51
2023-09-08T03:27:00,sdl,11.86
2023-09-08T03:28:00,sdl,11.72
2023-09-08T03:29:00,sdl,11.37
2023-09-08T03:30:00,sdl,11.31
2023-09-08T03:31:00,sdl,13.88
2023-09-08T03:32:00,sdl,14.43
2023-09-08T03:33:00,sdl,14.43
2023-09-08T03:34:00,sdl,14.47
2023-09-08T03:35:00,sdl,14.73
2023-09-08T03:36:00,sdl,14.73
2023-09-08T03:37:00,sdl,14.72
2023-09-08T03:38:00,sdl,14.69
2023-09-08T03:39:00,sdl,14.74
2023-09-08T03:40:00,sdl,14.65
2023-09-08T03:41:00,sdl,14.67
2023-09-08T03:42:00,sdl,14.93
2023-09-08T03:43:00,sdl,14.58
2023-09-08T03:44:00,sdl,14.56
2023-09-08T03:45:00,sdl,14.88
2023-09-08T03:46:00,sdl,14.67
2023-09-08T03:47:00,sdl,14.50
2023-09-08T03:48:00,sdl,14.56
2023-09-08T03:49:00,sdl,12.39
2023-09-08T03:50:00,sdl,12.38
2023-09-08T03:51:00,sdl,12.46
2023-09-08T03:52:00,sdl,11.49
2023-09-08T03:53:00,sdl,11.44
2023-09-08T03:54:00,sdl,11.63
2023-09-08T03:55:00,sdl,11.74
2023-09-08T03:56:00,sdl,11.92
2023-09-08T03:57:00,sdl,12.11
2023-09-08T03:58:00,sdl,12.40
2023-09-08T03:59:00,sdl,12.34
2023-09-08T04:00:00,sdl,12.38
2023-09-08T04:01:00,sdl,12.40
2023-09-08T04:02:00,sdl,12.73
2023-09-08T04:03:00,sdl,12.32
2023-09-08T04:04:00,sdl,14.46
2023-09-08T04:05:00,sdl,14.58
2023-09-08T04:06:00,sdl,14.58
2023-09-08T04:07:00,sdl,14.52
2023-09-08T04:08:00,sdl,14.66
2023-09-08T04:09:00,sdl,14.50
2023-09-08T04:10:00,sdl,14.55
2023-09-08T04:11:00,sdl,14.56
2023-09-08T04:12:00,sdl,14.55
2023-09-08T04:13:00,sdl,14.59
2023-09-08T04:14:00,sdl,14.57
2023-09-08T04:15:00,sdl,14.65
2023-09-08T04:16:00,sdl,11.47
2023-09-08T04:17:00,sdl,11.43
2023-09-08T04:18:00,sdl,11.52
2023-09-08T04:19:00,sdl,11.49
2023-09-08T04:20:00,sdl,11.54
2023-09-08T04:21:00,sdl,12.70
2023-09-08T04:22:00,sdl,12.34
2023-09-08T04:23:00,sdl,12.34
2023-09-08T04:24:00,sdl,12.72
2023-09-08T04:25:00,sdl,12.30
2023-09-08T04:26:00,sdl,12.39
2023-09-08T04:27:00,sdl,12.22
2023-09-08T04:28:00,sdl,12.16
2023-09-08T04:29:00,sdl,12.13
2023-09-08T04:30:00,sdl,12.19
2023-09-08T04:31:00,sdl,12.18
2023-09-08T04:32:00,sdl,12.40
2023-09-08T04:33:00,sdl,12.45
2023-09-08T04:34:00,sdl,12.17
2023-09-08T04:35:00,sdl,12.21
2023-09-08T04:36:00,sdl,12.25
2023-09-08T04:37:00,sdl,12.24
2023-09-08T04:38:00,sdl,11.40
2023-09-08T04:39:00,sdl,11.32
2023-09-08T04:40:00,sdl,13.33
2023-09-08T04:41:00,sdl,13.36
2023-09-08T04:42:00,sdl,13.78
2023-09-08T04:43:00,sdl,13.85
2023-09-08T04:44:00,sdl,14.91
2023-09-08T04:45:00,sdl,14.87
2023-09-08T04:46:00,sdl,14.68
2023-09-08T04:47:00,sdl,14.62
2023-09-08T04:48:00,sdl,15.09
2023-09-08T04:49:00,sdl,14.72
2023-09-08T04:50:00,sdl,14.73
2023-09-08T04:51:00,sdl,14.98
2023-09-08T04:52:00,sdl,15.31
2023-09-08T04:53:00,sdl,15.29
2023-09-08T04:54:00,sdl,15.19
2023-09-08T04:55:00,sdl,14.67
2023-09-08T04:56:00,sdl,14.70
2023-09-08T04:57:00,sdl,14.72
2023-09-08T04:58:00,sdl,14.79
2023-09-08T04:59:00,sdl,13.20
2023-09-08T05:00:00,sdl,11.56
2023-09-08T05:01:00,sdl,11.62
2023-09-08T05:02:00,sdl,11.50
2023-09-08T05:03:00,sdl,11.66
2023-09-08T05:04:00,sdl,11.93
2023-09-08T05:05:00,sdl,12.54
2023-09-08T05:06:00,sdl,12.53
2023-09-08T05:07:00,sdl,12.63
2023-09-08T05:08:00,sdl,12.56
2023-09-08T05:09:00,sdl,12.57
2023-09-08T05:10:00,sdl,12.52
2023-09-08T05:11:00,sdl,12.56
2023-09-08T05:12:00,sdl,12.53
2023-09-08T05:13:00,sdl,12.83
2023-09-08T05:14:00,sdl,12.95
2023-09-08T05:15:00,sdl,12.41
2023-09-08T05:16:00,sdl,12.41
2023-09-08T05:17:00,sdl,12.49
2023-09-08T05:18:00,sdl,12.41
2023-09-08T05:19:00,sdl,12.40
2023-09-08T05:20:00,sdl,11.49
2023-09-08T05:21:00,sdl,11.88
2023-09-08T05:22:00,sdl,12.22
2023-09-08T05:23:00,sdl,12.69
2023-09-08T05:24:00,sdl,11.71
2023-09-08T05:25:00,sdl,12.60
2023-09-08T05:26:00,sdl,12.40
2023-09-08T05:27:00,sdl,12.51
2023-09-08T05:28:00,sdl,14.63
2023-09-08T05:29:00,sdl,14.62
2023-09-08T05:30:00,sdl,14.56
2023-09-08T05:31:00,sdl,14.94
2023-09-08T05:32:00,sdl,14.71
2023-09-08T05:33:00,sdl,14.67
2023-09-08T05:34:00,sdl,14.67
2023-09-08T05:35:00,sdl,14.69
2023-09-08T05:36:00,sdl,14.61
2023-09-08T05:37:00,sdl,14.86
2023-09-08T05:38:00,sdl,14.66
2023-09-08T05:39:00,sdl,14.64
2023-09-08T05:40:00,sdl,11.51
2023-09-08T05:41:00,sdl,11.53
2023-09-08T05:42:00,sdl,11.59
2023-09-08T05:43:00,sdl,11.47
2023-09-08T05:44:00,sdl,11.42
2023-09-08T05:45:00,sdl,11.39
2023-09-08T05:46:00,sdl,12.37
2023-09-08T05:47:00,sdl,12.31
2023-09-08T05:48:00,sdl,12.34
2023-09-08T05:49:00,sdl,12.59
2023-09-08T05:50:00,sdl,12.67
2023-09-08T05:51:00,sdl,12.29
2023-09-08T05:52:00,sdl,12.36
2023-09-08T05:53:00,sdl,12.43
2023-09-08T05:54:00,sdl,12.70
2023-09-08T05:55:00,sdl,12.59
2023-09-08T05:56:00,sdl,13.62
2023-09-08T05:57:00,sdl,14.37
2023-09-08T05:58:00,sdl,14.36
2023-09-08T05:59:00,sdl,13.58
2023-09-08T06:00:00,sdl,13.45
2023-09-08T06:01:00,sdl,13.45
2023-09-08T06:02:00,sdl,14.12
2023-09-08T06:03:00,sdl,13.68
2023-09-08T06:04:00,sdl,13.80
2023-09-08T06:05:00,sdl,14.58
2023-09-08T06:06:00,sdl,14.55
2023-09-08T06:07:00,sdl,14.70
2023-09-08T06:08:00,sdl,14.69
2023-09-08T06:09:00,sdl,14.73
2023-09-08T06:10:00,sdl,14.75
2023-09-08T06:11:00,sdl,14.80
2023-09-08T06:12:00,sdl,14.99
2023-09-08T06:13:00,sdl,12.80
2023-09-08T06:14:00,sdl,12.83
2023-09-08T06:15:00,sdl,12.84
2023-09-08T06:16:00,sdl,12.85
2023-09-08T06:17:00,sdl,12.59
2023-09-08T06:18:00,sdl,11.79
2023-09-08T06:19:00,sdl,11.51
2023-09-08T06:20:00,sdl,11.67
2023-09-08T06:21:00,sdl,11.60
2023-09-08T06:22:00,sdl,11.62
2023-09-08T06:23:00,sdl,12.11
2023-09-08T06:24:00,sdl,12.63
2023-09-08T06:25:00,sdl,13.31
2023-09-08T06:26:00,sdl,12.64
2023-09-08T06:27:00,sdl,12.58
2023-09-08T06:28:00,sdl,12.63
2023-09-08T06:29:00,sdl,12.83
2023-09-08T06:30:00,sdl,12.39
2023-09-08T06:31:00,sdl,12.83
2023-09-08T06:32:00,sdl,12.35
2023-09-08T06:33:00,sdl,12.46
2023-09-08T06:34:00,sdl,12.48
2023-09-08T06:35:00,sdl,12.37
2023-09-08T06:36:00,sdl,12.27
2023-09-08T06:37:00,sdl,11.72
2023-09-08T06:38:00,sdl,11.46
2023-09-08T06:39:00,sdl,11.39
2023-09-08T06:40:00,sdl,11.41
2023-09-08T06:41:00,sdl,11.50
2023-09-08T06:42:00,sdl,11.86
2023-09-08T06:43:00,sdl,11.48
2023-09-08T06:44:00,sdl,12.39
2023-09-08T06:45:00,sdl,14.48
2023-09-08T06:46:00,sdl,14.38
2023-09-08T06:47:00,sdl,14.35
2023-09-08T06:48:00,sdl,14.37
2023-09-08T06:49:00,sdl,14.24
2023-09-08T06:50:00,sdl,14.33
2023-09-08T06:51:00,sdl,14.44
2023-09-08T06:52:00,sdl,14.49
2023-09-08T06:53:00,sdl,14.63
2023-09-08T06:54:00,sdl,14.29
2023-09-08T06:55:00,sdl,14.42
2023-09-08T06:56:00,sdl,14.22
2023-09-08T06:57:00,sdl,14.18
2023-09-08T06:58:00,sdl,14.24
2023-09-08T06:59:00,sdl,13.51
2023-09-08T07:00:00,sdl,13.52
2023-09-08T07:01:00,sdl,13.27
2023-09-08T07:02:00,sdl,13.19
2023-09-08T07:03:00,sdl,13.35
2023-09-08T07:04:00,sdl,13.37
2023-09-08T07:05:00,sdl,11.05
2023-09-08T07:06:00,sdl,12.06
2023-09-08T07:07:00,sdl,12.38
2023-09-08T07:08:00,sdl,12.39
2023-09-08T07:09:00,sdl,12.25
2023-09-08T07:10:00,sdl,12.26
2023-09-08T07:11:00,sdl,12.32
2023-09-08T07:12:00,sdl,12.55
2023-09-08T07:13:00,sdl,12.72
2023-09-08T07:14:00,sdl,12.97
2023-09-08T07:15:00,sdl,12.89
2023-09-08T07:16:00,sdl,12.83
2023-09-08T07:17:00,sdl,13.04
2023-09-08T07:18:00,sdl,13.03
2023-09-08T07:19:00,sdl,13.01
2023-09-08T07:20:00,sdl,12.50
2023-09-08T07:21:00,sdl,12.32
2023-09-08T07:22:00,sdl,12.48
2023-09-08T07:23:00,sdl,12.31
2023-09-08T07:24:00,sdl,12.26
2023-09-08T07:25:00,sdl,12.65
2023-09-08T07:26:00,sdl,13.39
2023-09-08T07:27:00,sdl,14.73
2023-09-08T07:28:00,sdl,14.52
2023-09-08T07:29:00,sdl,17.56
2023-09-08T07:30:00,sdl,17.03
2023-09-08T07:31:00,sdl,16.55
2023-09-08T07:32:00,sdl,19.18
2023-09-08T07:33:00,sdl,17.31
2023-09-08T07:34:00,sdl,19.33
2023-09-08T07:35:00,sdl,19.93
2023-09-08T07:36:00,sdl,19.69
2023-09-08T07:37:00,sdl,19.62
2023-09-08T07:38:00,sdl,19.54
2023-09-08T07:39:00,sdl,20.24
2023-09-08T07:40:00,sdl,22.53
2023-09-08T07:41:00,sdl,23.09
2023-09-08T07:42:00,sdl,22.71
2023-09-08T07:43:00,sdl,22.13
2023-09-08T07:44:00,sdl,22.06
2023-09-08T07:45:00,sdl,21.98
2023-09-08T07:46:00,sdl,22.38
2023-09-08T07:47:00,sdl,25.26
2023-09-08T07:48:00,sdl,23.66
2023-09-08T07:49:00,sdl,23.84
2023-09-08T07:50:00,sdl,24.42
2023-09-08T07:51:00,sdl,24.26
2023-09-08T07:52:00,sdl,24.32
2023-09-08T07:53:00,sdl,24.36
2023-09-08T07:54:00,sdl,24.17
2023-09-08T07:55:00,sdl,23.88
2023-09-08T07:56:00,sdl,24.08
2023-09-08T07:57:00,sdl,23.91
2023-09-08T07:58:00,sdl,24.13
2023-09-08T07:59:00,sdl,24.08
2023-09-08T08:00:00,sdl,24.13
2023-09-08T08:01:00,sdl,24.31
2023-09-08T08:02:00,sdl,24.07
2023-09-08T08:03:00,sdl,25.68
2023-09-08T08:04:00,sdl,25.58
2023-09-08T08:05:00,sdl,25.69
2023-09-08T08:06:00,sdl,25.65
2023-09-08T08:07:00,sdl,25.78
2023-09-08T08:08:00,sdl,25.68
2023-09-08T08:09:00,sdl,25.81
2023-09-08T08:10:00,sdl,25.95
2023-09-08T08:11:00,sdl,25.89
2023-09-08T08:12:00,sdl,25.86
2023-09-08T08:13:00,sdl,26.04
2023-09-08T08:14:00,sdl,20.58
2023-09-08T08:15:00,sdl,20.49
2023-09-08T08:16:00,sdl,20.53
2023-09-08T08:17:00,sdl,20.67
2023-09-08T08:18:00,sdl,20.21
2023-09-08T08:19:00,sdl,20.19
2023-09-08T08:20:00,sdl,18.11
2023-09-08T08:21:00,sdl,18.25
2023-09-08T08:22:00,sdl,17.06
2023-09-08T08:23:00,sdl,17.05
2023-09-08T08:24:00,sdl,16.97
2023-09-08T08:25:00,sdl,16.80
2023-09-08T08:26:00,sdl,17.39
2023-09-08T08:27:00,sdl,17.79
2023-09-08T08:28:00,sdl,17.76
2023-09-08T08:29:00,sdl,18.00
2023-09-08T08:30:00,sdl,22.94
2023-09-08T08:31:00,sdl,23.02
2023-09-08T08:32:00,sdl,23.08
2023-09-08T08:33:00,sdl,23.20
2023-09-08T08:34:00,sdl,23.21
2023-09-08T08:35:00,sdl,22.90
2023-09-08T08:36:00,sdl,22.14
2023-09-08T08:37:00,sdl,21.40
2023-09-08T08:38:00,sdl,16.33
2023-09-08T08:39:00,sdl,14.49
2023-09-08T08:40:00,sdl,13.45
2023-09-08T08:41:00,sdl,13.37
2023-09-08T08:42:00,sdl,13.80
2023-09-08T08:43:00,sdl,13.71
2023-09-08T08:44:00,sdl,13.72
2023-09-08T08:45:00,sdl,13.60
2023-09-08T08:46:00,sdl,14.07
2023-09-08T08:47:00,sdl,14.59
2023-09-08T08:48:00,sdl,14.13
2023-09-08T08:49:00,sdl,14.10
2023-09-08T08:50:00,sdl,16.38
2023-09-08T08:51:00,sdl,16.30
2023-09-08T08:52:00,sdl,16.35
2023-09-08T08:53:00,sdl,17.52
2023-09-08T08:54:00,sdl,16.74
2023-09-08T08:55:00,sdl,16.89
2023-09-08T08:56:00,sdl,16.38
2023-09-08T08:57:00,sdl,16.89
2023-09-08T08:58:00,sdl,16.25
2023-09-08T08:59:00,sdl,16.40
2023-09-08T09:00:00,sdl,16.52
2023-09-08T09:01:00,sdl,16.98
2023-09-08T09:02:00,sdl,16.14
2023-09-08T09:03:00,sdl,16.20
2023-09-08T09:04:00,sdl,16.46
2023-09-08T09:05:00,sdl,15.51
2023-09-08T09:06:00,sdl,15.36
2023-09-08T09:07:00,sdl,15.09
2023-09-08T09:08:00,sdl,15.44
2023-09-08T09:09:00,sdl,15.55
2023-09-08T09:10:00,sdl,15.89
2023-09-08T09:11:00,sdl,13.84
2023-09-08T09:12:00,sdl,13.86
2023-09-08T09:13:00,sdl,14.25
2023-09-08T09:14:00,sdl,14.37
2023-09-08T09:15:00,sdl,13.98
2023-09-08T09:16:00,sdl,13.88
2023-09-08T09:17:00,sdl,13.78
2023-09-08T09:18:00,sdl,13.74
2023-09-08T09:19:00,sdl,13.91
2023-09-08T09:20:00,sdl,13.99
2023-09-08T09:21:00,sdl,13.79
2023-09-08T09:22:00,sdl,13.72
2023-09-08T09:23:00,sdl,13.88
2023-09-08T09:24:00,sdl,13.79
2023-09-08T09:25:00,sdl,13.92
2023-09-08T09:26:00,sdl,13.81
2023-09-08T09:27:00,sdl,13.97
2023-09-08T09:28:00,sdl,14.00
2023-09-08T09:29:00,sdl,13.90
2023-09-08T09:30:00,sdl,13.93
2023-09-08T09:31:00,sdl,13.99
2023-09-08T09:32:00,sdl,14.15
2023-09-08T09:33:00,sdl,13.82
2023-09-08T09:34:00,sdl,13.85
2023-09-08T09:35:00,sdl,14.14
2023-09-08T09:36:00,sdl,16.22
2023-09-08T09:37:00,sdl,17.11
2023-09-08T09:38:00,sdl,16.47
2023-09-08T09:39:00,sdl,16.28
2023-09-08T09:40:00,sdl,16.35
2023-09-08T09:41:00,sdl,15.94
2023-09-08T09:42:00,sdl,15.87
2023-09-08T09:43:00,sdl,15.94
2023-09-08T09:44:00,sdl,15.88
2023-09-08T09:45:00,sdl,16.06
2023-09-08T09:46:00,sdl,15.76
2023-09-08T09:47:00,sdl,15.88
2023-09-08T09:48:00,sdl,13.75
2023-09-08T09:49:00,sdl,13.93
2023-09-08T09:50:00,sdl,13.75
2023-09-08T09:51:00,sdl,13.82
2023-09-08T09:52:00,sdl,14.46
2023-09-08T09:53:00,sdl,13.92
2023-09-08T09:54:00,sdl,14.24
2023-09-08T09:55:00,sdl,13.86
2023-09-08T09:56:00,sdl,13.88
2023-09-08T09:57:00,sdl,14.16
2023-09-08T09:58:00,sdl,14.37
2023-09-08T09:59:00,sdl,14.23
2023-09-08T10:00:00,sdl,14.25
2023-09-08T10:01:00,sdl,14.27
2023-09-08T10:02:00,sdl,13.94
2023-09-08T10:03:00,sdl,15.20
2023-09-08T10:04:00,sdl,16.09
2023-09-08T10:05:00,sdl,16.18
2023-09-08T10:06:00,sdl,16.39
2023-09-08T10:07:00,sdl,16.04
2023-09-08T10:08:00,sdl,15.91
2023-09-08T10:09:00,sdl,15.95
2023-09-08T10:10:00,sdl,16.35
2023-09-08T10:11:00,sdl,16.19
2023-09-08T10:12:00,sdl,16.01
2023-09-08T10:13:00,sdl,16.13
2023-09-08T10:14:00,sdl,16.23
2023-09-08T10:15:00,sdl,16.07
2023-09-08T10:16:00,sdl,16.16
2023-09-08T10:17:00,sdl,16.04
2023-09-08T10:18:00,sdl,16.82
2023-09-08T10:19:00,sdl,16.18
2023-09-08T10:20:00,sdl,16.16
2023-09-08T10:21:00,sdl,16.43
2023-09-08T10:22:00,sdl,14.44
2023-09-08T10:23:00,sdl,14.44
2023-09-08T10:24:00,sdl,14.30
2023-09-08T10:25:00,sdl,14.11
2023-09-08T10:26:00,sdl,14.06
2023-09-08T10:27:00,sdl,14.40
2023-09-08T10:28:00,sdl,14.56
2023-09-08T10:29:00,sdl,14.22
2023-09-08T10:30:00,sdl,14.26
2023-09-08T10:31:00,sdl,14.28
2023-09-08T10:32:00,sdl,14.15
2023-09-08T10:33:00,sdl,14.22
2023-09-08T10:34:00,sdl,14.27
2023-09-08T10:35:00,sdl,14.30
2023-09-08T10:36:00,sdl,14.67
2023-09-08T10:37:00,sdl,14.45
2023-09-08T10:38:00,sdl,14.13
2023-09-08T10:39:00,sdl,14.09
2023-09-08T10:40:00,sdl,14.16
2023-09-08T10:41:00,sdl,14.18
2023-09-08T10:42:00,sdl,14.34
2023-09-08T10:43:00,sdl,14.38
2023-09-08T10:44:00,sdl,14.58
2023-09-08T10:45:00,sdl,14.28
2023-09-08T10:46:00,sdl,14.90
2023-09-08T10:47:00,sdl,14.24
2023-09-08T10:48:00,sdl,16.55
2023-09-08T10:49:00,sdl,16.24
2023-09-08T10:50:00,sdl,16.45
2023-09-08T10:51:00,sdl,16.25
2023-09-08T10:52:00,sdl,16.65
2023-09-08T10:53:00,sdl,16.56
2023-09-08T10:54:00,sdl,16.32
2023-09-08T10:55:00,sdl,16.34
2023-09-08T10:56:00,sdl,16.32
2023-09-08T10:57:00,sdl,16.85
2023-09-08T10:58:00,sdl,16.49
2023-09-08T10:59:00,sdl,16.67
2023-09-08T11:00:00,sdl,16.91
2023-09-08T11:01:00,sdl,16.61
2023-09-08T11:02:00,sdl,16.70
2023-09-08T11:03:00,sdl,16.62
2023-09-08T11:04:00,sdl,16.43
2023-09-08T11:05:00,sdl,16.41
2023-09-08T11:06:00,sdl,14.48
2023-09-08T11:07:00,sdl,14.15
2023-09-08T11:08:00,sdl,14.25
2023-09-08T11:09:00,sdl,14.41
2023-09-08T11:10:00,sdl,14.37
2023-09-08T11:11:00,sdl,14.30
2023-09-08T11:12:00,sdl,14.33
2023-09-08T11:13:00,sdl,14.29
2023-09-08T11:14:00,sdl,14.44
2023-09-08T11:15:00,sdl,14.86
2023-09-08T11:16:00,sdl,14.64
2023-09-08T11:17:00,sdl,14.67
2023-09-08T11:18:00,sdl,14.71
2023-09-08T11:19:00,sdl,14.38
2023-09-08T11:20:00,sdl,14.33
2023-09-08T11:21:00,sdl,15.00
2023-09-08T11:22:00,sdl,14.48
2023-09-08T11:23:00,sdl,14.45
2023-09-08T11:24:00,sdl,14.58
2023-09-08T11:25:00,sdl,14.61
2023-09-08T11:26:00,sdl,14.33
2023-09-08T11:27:00,sdl,14.34
2023-09-08T11:28:00,sdl,14.34
2023-09-08T11:29:00,sdl,14.47
2023-09-08T11:30:00,sdl,16.56
2023-09-08T11:31:00,sdl,16.43
2023-09-08T11:32:00,sdl,16.45
2023-09-08T11:33:00,sdl,16.55
2023-09-08T11:34:00,sdl,16.73
2023-09-08T11:35:00,sdl,16.60
2023-09-08T11:36:00,sdl,16.48
2023-09-08T11:37:00,sdl,16.46
2023-09-08T11:38:00,sdl,16.70
2023-09-08T11:39:00,sdl,16.67
2023-09-08T11:40:00,sdl,16.41
2023-09-08T11:41:00,sdl,16.44
2023-09-08T11:42:00,sdl,14.83
2023-09-08T11:43:00,sdl,14.66
2023-09-08T11:44:00,sdl,15.10
2023-09-08T11:45:00,sdl,15.07
2023-09-08T11:46:00,sdl,15.02
2023-09-08T11:47:00,sdl,14.73
2023-09-08T11:48:00,sdl,15.32
2023-09-08T11:49:00,sdl,14.54
2023-09-08T11:50:00,sdl,14.56
2023-09-08T11:51:00,sdl,14.36
2023-09-08T11:52:00,sdl,14.01
2023-09-08T11:53:00,sdl,14.08
2023-09-08T11:54:00,sdl,14.10
2023-09-08T11:55:00,sdl,14.64
2023-09-08T11:56:00,sdl,14.01
2023-09-08T11:57:00,sdl,14.66
2023-09-08T11:58:00,sdl,16.64
2023-09-08T11:59:00,sdl,16.47
2023-09-08T12:00:00,sdl,16.61
2023-09-08T12:01:00,sdl,16.29
2023-09-08T12:02:00,sdl,16.25
2023-09-08T12:03:00,sdl,16.32
2023-09-08T12:04:00,sdl,17.27
2023-09-08T12:05:00,sdl,16.24
2023-09-08T12:06:00,sdl,16.04
2023-09-08T12:07:00,sdl,16.20
2023-09-08T12:08:00,sdl,17.10
2023-09-08T12:09:00,sdl,16.73
2023-09-08T12:10:00,sdl,16.71
2023-09-08T12:11:00,sdl,16.89
2023-09-08T12:12:00,sdl,17.43
2023-09-08T12:13:00,sdl,16.85
2023-09-08T12:14:00,sdl,16.58
2023-09-08T12:15:00,sdl,16.42
2023-09-08T12:16:00,sdl,17.12
2023-09-08T12:17:00,sdl,14.30
2023-09-08T12:18:00,sdl,14.70
2023-09-08T12:19:00,sdl,14.87
2023-09-08T12:20:00,sdl,14.29
2023-09-08T12:21:00,sdl,14.36
2023-09-08T12:22:00,sdl,14.43
2023-09-08T12:23:00,sdl,14.30
2023-09-08T12:24:00,sdl,14.76
2023-09-08T12:25:00,sdl,14.27
2023-09-08T12:26:00,sdl,14.56
2023-09-08T12:27:00,sdl,14.57
2023-09-08T12:28:00,sdl,14.49
2023-09-08T12:29:00,sdl,14.56
2023-09-08T12:30:00,sdl,14.44
2023-09-08T12:31:00,sdl,14.45
2023-09-08T12:32:00,sdl,14.55
2023-09-08T12:33:00,sdl,14.67
2023-09-08T12:34:00,sdl,14.42
2023-09-08T12:35:00,sdl,15.87
2023-09-08T12:36:00,sdl,15.50
2023-09-08T12:37:00,sdl,15.37
2023-09-08T12:38:00,sdl,15.02
2023-09-08T12:39:00,sdl,14.47
2023-09-08T12:40:00,sdl,14.47
2023-09-08T12:41:00,sdl,14.51
2023-09-08T12:42:00,sdl,14.43
2023-09-08T12:43:00,sdl,14.38
2023-09-08T12:44:00,sdl,14.30
2023-09-08T12:45:00,sdl,14.33
2023-09-08T12:46:00,sdl,14.19
2023-09-08T12:47:00,sdl,14.43
2023-09-08T12:48:00,sdl,14.49
2023-09-08T12:49:00,sdl,16.48
2023-09-08T12:50:00,sdl,16.57
2023-09-08T12:51:00,sdl,16.62
2023-09-08T12:52:00,sdl,16.59
2023-09-08T12:53:00,sdl,16.50
2023-09-08T12:54:00,sdl,16.55
2023-09-08T12:55:00,sdl,17.08
2023-09-08T12:56:00,sdl,16.41
2023-09-08T12:57:00,sdl,16.38
2023-09-08T12:58:00,sdl,16.52
2023-09-08T12:59:00,sdl,16.40
2023-09-08T13:00:00,sdl,16.47
2023-09-08T13:01:00,sdl,17.32
2023-09-08T13:02:00,sdl,16.57
2023-09-08T13:03:00,sdl,16.40
2023-09-08T13:04:00,sdl,16.44
2023-09-08T13:05:00,sdl,16.35
2023-09-08T13:06:00,sdl,16.36
2023-09-08T13:07:00,sdl,16.31
2023-09-08T13:08:00,sdl,14.42
2023-09-08T13:09:00,sdl,16.07
2023-09-08T13:10:00,sdl,14.90
2023-09-08T13:11:00,sdl,14.80
2023-09-08T13:12:00,sdl,14.87
2023-09-08T13:13:00,sdl,14.34
2023-09-08T13:14:00,sdl,14.57
2023-09-08T13:15:00,sdl,14.23
2023-09-08T13:16:00,sdl,14.28
2023-09-08T13:17:00,sdl,14.34
2023-09-08T13:18:00,sdl,14.41
2023-09-08T13:19:00,sdl,14.36
2023-09-08T13:20:00,sdl,14.53
2023-09-08T13:21:00,sdl,14.51
2023-09-08T13:22:00,sdl,14.48